Starlink 4320

operational
NORAD ID: 53059 Int'l Des: 2022-077 Owner: SPXS Country: US Constellation: starlink
LEOCIRCULARRETROGRADESSO

Starlink 4320について

説明を読み込み中...

リアルタイム位置

3D地球を読み込み中...

次回通過

高度履歴

Altitude vs Time

uPlot chart will show altitude changes over time

軌道要素

1 53059U 22077S 25353.89904974 -.00000055 00000-0 28887-6 0 9998
2 53059 97.6017 172.1047 0002570 14.0879 346.0417 15.01259394188943
Epoch: Dec 19, 2025 • Age: 9 hours

現在のステータス

高度 574.6 km
速度 7.58 km/s
衛星直下点 65.40°N, 170.97°W
打ち上げ日 Jul 11, 2022
運用期間 3.4 years
タイプ internet

技術仕様

分類 Payload
質量 297.00 kg
乾燥質量 275.00 kg
総質量 297.00 kg
長さ 0.20 m
直径 2.80 m
スパン 9.00 m
形状 Box + pan
製造者 SPXS
バスタイプ Starlink
フェーズステータス In Orbit
所有者/国 SPXS/US

大規模コンステレーション

Loading constellations...